Multibeam Report for ZHNG04RR


Ship Name: Roger Revelle
Chief Scientist: None
Source Organization: UNOLS R2R
Start Date: 2005-03-29
End Date: 2005-04-15


View ISO Metadata

Visit the full NCEI Bathymetry Viewer


Multibeam Bathymetry

Cruise Details

Project: Transit
Instrument: Kongsberg EM120

Data Quality

Number of Files: 101
Number of Records: 11955
BATHYMETRY DATA Quantity Percentage
Number of Beams 2283405 100%
Number of Good Beams 2146311 94.0%
Number of Zero Beams 137094 6.0%
Number of Flagged Beams 0 0%

Navigation Totals

Total Time: 69.8611 hours
Total Track Length: 1526.5606 km
Average Speed: 21.851 km/hr (11.7986 knots)

Cruise Bounds

Northern Extent: 17.29861
Southern Extent: 1.381889
Western Extent: 126.01738
Eastern Extent: 141.03423

Limits

Minimum Sonar Depth 4.01 Maximum Sonar Depth 6553.6001
Minimum Altitude 0 Maximum Altitude 6582.0801
Minimum Depth 3132.4399 Maximum Depth 6588.1099

File Information

Full Resolution Bathymetry as collected (raw): 99

Files File Size Description
0001_20050408_112253_raw.all.mb56.gz 2.01MB Simrad multibeam vendor format
0002_20050408_115253_raw.all.mb56.gz 2.07MB Simrad multibeam vendor format
0003_20050408_122253_raw.all.mb56.gz 2.04MB Simrad multibeam vendor format
0004_20050408_125253_raw.all.mb56.gz 2.22MB Simrad multibeam vendor format
0005_20050408_132253_raw.all.mb56.gz 2.23MB Simrad multibeam vendor format
0006_20050408_135253_raw.all.mb56.gz 2.22MB Simrad multibeam vendor format
0007_20050408_142253_raw.all.mb56.gz 2.15MB Simrad multibeam vendor format
0008_20050408_145253_raw.all.mb56.gz 2.12MB Simrad multibeam vendor format
0009_20050408_152253_raw.all.mb56.gz 2.12MB Simrad multibeam vendor format
0010_20050408_155253_raw.all.mb56.gz 2.07MB Simrad multibeam vendor format
0011_20050408_162253_raw.all.mb56.gz 2.10MB Simrad multibeam vendor format
0012_20050408_165253_raw.all.mb56.gz 2.10MB Simrad multibeam vendor format
0013_20050408_172253_raw.all.mb56.gz 2.08MB Simrad multibeam vendor format
0014_20050408_175252_raw.all.mb56.gz 2.07MB Simrad multibeam vendor format
0015_20050408_182252_raw.all.mb56.gz 2.09MB Simrad multibeam vendor format
0016_20050408_185252_raw.all.mb56.gz 2.07MB Simrad multibeam vendor format
0017_20050408_192252_raw.all.mb56.gz 2.04MB Simrad multibeam vendor format
0018_20050408_195252_raw.all.mb56.gz 2.02MB Simrad multibeam vendor format
0019_20050408_202252_raw.all.mb56.gz 2.04MB Simrad multibeam vendor format
0020_20050408_205252_raw.all.mb56.gz 2.05MB Simrad multibeam vendor format
0021_20050408_212252_raw.all.mb56.gz 2.01MB Simrad multibeam vendor format
0022_20050408_215252_raw.all.mb56.gz 2.02MB Simrad multibeam vendor format
0023_20050408_222252_raw.all.mb56.gz 1.99MB Simrad multibeam vendor format
0024_20050408_225252_raw.all.mb56.gz 2.00MB Simrad multibeam vendor format
0025_20050408_232252_raw.all.mb56.gz 1.97MB Simrad multibeam vendor format
0026_20050408_235252_raw.all.mb56.gz 2.00MB Simrad multibeam vendor format
0027_20050409_002253_raw.all.mb56.gz 1.99MB Simrad multibeam vendor format
0028_20050409_005253_raw.all.mb56.gz 1.99MB Simrad multibeam vendor format
0029_20050409_012253_raw.all.mb56.gz 1.97MB Simrad multibeam vendor format
0030_20050409_015253_raw.all.mb56.gz 1.97MB Simrad multibeam vendor format
0031_20050409_022253_raw.all.mb56.gz 1.98MB Simrad multibeam vendor format
0032_20050409_025253_raw.all.mb56.gz 1.98MB Simrad multibeam vendor format
0033_20050409_032253_raw.all.mb56.gz 1.98MB Simrad multibeam vendor format
0034_20050409_035253_raw.all.mb56.gz 1.98MB Simrad multibeam vendor format
0035_20050409_042253_raw.all.mb56.gz 2.00MB Simrad multibeam vendor format
0036_20050409_045253_raw.all.mb56.gz 1.99MB Simrad multibeam vendor format
0037_20050409_052253_raw.all.mb56.gz 2.01MB Simrad multibeam vendor format
0038_20050409_055253_raw.all.mb56.gz 1.99MB Simrad multibeam vendor format
0039_20050409_062254_raw.all.mb56.gz 1.94MB Simrad multibeam vendor format
0040_20050409_065254_raw.all.mb56.gz 1.98MB Simrad multibeam vendor format
0041_20050409_072254_raw.all.mb56.gz 1.96MB Simrad multibeam vendor format
0042_20050409_075254_raw.all.mb56.gz 1.95MB Simrad multibeam vendor format
0043_20050409_082254_raw.all.mb56.gz 1.93MB Simrad multibeam vendor format
0044_20050409_085254_raw.all.mb56.gz 1.98MB Simrad multibeam vendor format
0045_20050409_092254_raw.all.mb56.gz 1.98MB Simrad multibeam vendor format
0046_20050409_095254_raw.all.mb56.gz 1.97MB Simrad multibeam vendor format
0047_20050409_102254_raw.all.mb56.gz 0.50MB Simrad multibeam vendor format
0050_20050411_030102_raw.all.mb56.gz 1.85MB Simrad multibeam vendor format
0051_20050411_033102_raw.all.mb56.gz 1.84MB Simrad multibeam vendor format
0052_20050411_040102_raw.all.mb56.gz 1.81MB Simrad multibeam vendor format
0053_20050411_043102_raw.all.mb56.gz 1.85MB Simrad multibeam vendor format
0054_20050411_050102_raw.all.mb56.gz 1.87MB Simrad multibeam vendor format
0055_20050411_053102_raw.all.mb56.gz 81.50MB Simrad multibeam vendor format
0056_20050412_035124_raw.all.mb56.gz 1.83MB Simrad multibeam vendor format
0057_20050412_042155_raw.all.mb56.gz 169.8KB Simrad multibeam vendor format
0058_20050412_042442_raw.all.mb56.gz 1.78MB Simrad multibeam vendor format
0059_20050412_045458_raw.all.mb56.gz 1.81MB Simrad multibeam vendor format
0060_20050412_052459_raw.all.mb56.gz 1.74MB Simrad multibeam vendor format
0061_20050412_055459_raw.all.mb56.gz 1.68MB Simrad multibeam vendor format
0062_20050412_062459_raw.all.mb56.gz 1.76MB Simrad multibeam vendor format
0063_20050412_065459_raw.all.mb56.gz 1.81MB Simrad multibeam vendor format
0064_20050412_072459_raw.all.mb56.gz 1.79MB Simrad multibeam vendor format
0065_20050412_075459_raw.all.mb56.gz 1.66MB Simrad multibeam vendor format
0066_20050412_082459_raw.all.mb56.gz 1.77MB Simrad multibeam vendor format
0067_20050412_085459_raw.all.mb56.gz 1.79MB Simrad multibeam vendor format
0068_20050412_092459_raw.all.mb56.gz 1.77MB Simrad multibeam vendor format
0069_20050412_095459_raw.all.mb56.gz 1.77MB Simrad multibeam vendor format
0070_20050412_102459_raw.all.mb56.gz 1.78MB Simrad multibeam vendor format
0071_20050412_105459_raw.all.mb56.gz 1.78MB Simrad multibeam vendor format
0072_20050412_112459_raw.all.mb56.gz 1.79MB Simrad multibeam vendor format
0073_20050412_115500_raw.all.mb56.gz 1.82MB Simrad multibeam vendor format
0074_20050412_122500_raw.all.mb56.gz 1.78MB Simrad multibeam vendor format
0075_20050412_125500_raw.all.mb56.gz 1.78MB Simrad multibeam vendor format
0076_20050412_132500_raw.all.mb56.gz 1.83MB Simrad multibeam vendor format
0077_20050412_135500_raw.all.mb56.gz 1.86MB Simrad multibeam vendor format
0078_20050412_142500_raw.all.mb56.gz 1.92MB Simrad multibeam vendor format
0079_20050412_145500_raw.all.mb56.gz 1.92MB Simrad multibeam vendor format
0080_20050412_152500_raw.all.mb56.gz 1.93MB Simrad multibeam vendor format
0081_20050412_155500_raw.all.mb56.gz 1.91MB Simrad multibeam vendor format
0082_20050412_162500_raw.all.mb56.gz 1.94MB Simrad multibeam vendor format
0083_20050412_165500_raw.all.mb56.gz 1.94MB Simrad multibeam vendor format
0084_20050412_172500_raw.all.mb56.gz 1.90MB Simrad multibeam vendor format
0085_20050412_175500_raw.all.mb56.gz 1.89MB Simrad multibeam vendor format
0086_20050412_182501_raw.all.mb56.gz 1.84MB Simrad multibeam vendor format
0087_20050412_185501_raw.all.mb56.gz 1.85MB Simrad multibeam vendor format
0088_20050412_192501_raw.all.mb56.gz 1.77MB Simrad multibeam vendor format
0089_20050412_195501_raw.all.mb56.gz 1.80MB Simrad multibeam vendor format
0090_20050412_202501_raw.all.mb56.gz 1.77MB Simrad multibeam vendor format
0091_20050412_205501_raw.all.mb56.gz 1.83MB Simrad multibeam vendor format
0092_20050412_212501_raw.all.mb56.gz 1.98MB Simrad multibeam vendor format
0093_20050412_215501_raw.all.mb56.gz 1.96MB Simrad multibeam vendor format
0094_20050412_222501_raw.all.mb56.gz 1.81MB Simrad multibeam vendor format
0095_20050412_225501_raw.all.mb56.gz 1.77MB Simrad multibeam vendor format
0096_20050412_232501_raw.all.mb56.gz 1.75MB Simrad multibeam vendor format
0097_20050412_235501_raw.all.mb56.gz 1.72MB Simrad multibeam vendor format
0098_20050413_002501_raw.all.mb56.gz 1.75MB Simrad multibeam vendor format
0099_20050413_005502_raw.all.mb56.gz 1.81MB Simrad multibeam vendor format
0100_20050413_012502_raw.all.mb56.gz 1.88MB Simrad multibeam vendor format
0101_20050413_015502_raw.all.mb56.gz 1.62MB Simrad multibeam vendor format

Metadata Files: 1

Files File Size Description
ZHNG04RR_Multibeam.xml NGDC created ISO metadata

Ancillary Files: 1

Files File Size Description
xbt.tar.gz 61.8KB Expendable Bathythermograph (XBT) data